Location: Nelson
(38.9945°N, 93.0321°W)
Time: 17:58:59
(UTC+00:00)

ACS3 Solar Sail - Pass Details

Date: 01 July 2024
Orbit: 993 x 1023 km, 97.4° (Epoch: 21 July)

Event Time Altitude Azimuth Distance (km) Brightness Sun altitude
Exits shadow 05:24:43 - 243° (WSW) 2,987 7.2 -26.8°
Reaches altitude 10° 05:26:18 10° 256° (WSW) 2,757 7.1 -26.9°
Maximum altitude 05:28:11 11° 274° (W) 2,658 7.2 -26.9°
Drops below altitude 10° 05:30:03 10° 292° (WNW) 2,760 7.5 -27.0°
Sets 05:34:48 0° 325° (NW) 3,715 8.8 -27.2°
